DW8945 Weather Reports


time (UTC)temp
C
wind
direction
speed
KPH
gust
KPH
rain 1hr
cm
rain 24hr
cm
rain mn
cm
humidity
%
barometer
mb
20260507112424 10 313 0.0 4.8 0.00 0.00 0.00 93 1006.8
20260507111905 10 313 1.6 4.8 0.00 0.00 0.00 93 1006.9
20260507111349 9 313 0.0 3.2 0.00 0.00 0.00 93 1006.9
20260507110852 10 313 0.0 3.2 0.00 0.00 0.00 92 1006.9
20260507110351 10 313 0.0 3.2 0.00 0.00 0.00 92 1006.6
20260507105904 10 313 0.0 1.6 0.00 0.00 0.00 92 1006.5
20260507105350 10 313 0.0 1.6 0.00 0.00 0.00 92 1006.5
20260507104851 9 313 0.0 0.0 0.00 0.00 0.00 92 1006.6
20260507104357 9 313 0.0 4.8 0.00 0.00 0.00 92 1006.7
20260507103901 9 313 1.6 4.8 0.00 0.00 0.00 92 1006.9
20260507103404 9 314 0.0 3.2 0.00 0.00 0.00 92 1006.9
20260507102848 9 314 1.6 3.2 0.00 0.00 0.00 92 1007.0
20260507102354 9 314 0.0 3.2 0.00 0.00 0.00 92 1006.8
20260507101918 9 314 0.0 1.6 0.00 0.00 0.00 92 1006.5
20260507101359 9 314 0.0 1.6 0.00 0.00 0.00 91 1006.4
20260507100844 9 314 0.0 3.2 0.00 0.00 0.00 91 1006.4
20260507100406 9 314 0.0 8.0 0.00 0.00 0.00 91 1006.3
20260507095915 9 314 3.2 8.0 0.00 0.00 0.00 91 1006.4
20260507095357 9 314 3.2 6.4 0.00 0.00 0.00 91 1006.1
20260507094900 9 315 0.0 9.7 0.00 0.00 0.00 91 1006.1
20260507094405 9 313 3.2 8.0 0.00 0.00 0.00 91 1006.1
20260507093901 9 311 1.6 9.7 0.00 0.00 0.00 91 1006.1
20260507093345 10 312 3.2 12.9 0.00 0.00 0.00 91 1006.1
20260507092852 10 300 6.4 12.9 0.00 0.00 0.00 90 1006.1
20260507092355 10 324 3.2 9.7 0.00 0.00 0.00 91 1006.0
20260507091857 10 323 4.8 9.7 0.00 0.00 0.00 90 1006.0
20260507091403 10 317 3.2 8.0 0.00 0.00 0.00 90 1006.2
20260507090848 10 318 3.2 8.0 0.00 0.00 0.00 90 1006.2
20260507090345 10 316 1.6 8.0 0.00 0.00 0.00 90 1006.4
20260507085858 10 319 1.6 8.0 0.00 0.00 0.00 90 1006.4
20260507085402 10 317 3.2 9.7 0.00 0.00 0.00 90 1006.4
20260507084905 10 315 4.8 9.7 0.00 0.00 0.00 89 1006.3
20260507084349 10 316 3.2 9.7 0.00 0.00 0.00 89 1006.4
20260507083855 10 316 4.8 11.3 0.00 0.00 0.00 89 1006.4
20260507083355 11 318 3.2 11.3 0.00 0.00 0.00 89 1006.1
20260507082857 11 294 3.2 9.7 0.00 0.00 0.00 89 1006.0
20260507082401 11 291 3.2 9.7 0.00 0.00 0.00 88 1006.1
20260507081843 11 287 0.0 9.7 0.00 0.00 0.00 88 1006.0
20260507081350 11 276 0.0 11.3 0.00 0.00 0.00 87 1005.8
20260507080855 11 299 3.2 11.3 0.00 0.00 0.00 87 1005.9
20260507080353 11 325 3.2 12.9 0.00 0.00 0.00 86 1006.0
20260507075846 11 331 4.8 12.9 0.00 0.00 0.00 86 1006.2
20260507075352 11 315 4.8 14.5 0.00 0.00 0.00 86 1005.9
20260507074856 12 317 4.8 14.5 0.00 0.00 0.00 85 1006.0
20260507074402 12 340 3.2 12.9 0.00 0.00 0.00 85 1005.7
20260507073846 12 346 4.8 14.5 0.00 0.00 0.00 85 1005.8
20260507073349 12 301 6.4 14.5 0.00 0.00 0.00 84 1005.8
20260507072857 12 287 4.8 11.3 0.00 0.00 0.00 84 1005.7
20260507072345 12 298 4.8 11.3 0.00 0.00 0.00 84 1005.6
20260507071850 12 332 3.2 14.5 0.00 0.00 0.00 84 1005.2
20260507071418 12 331 3.2 14.5 0.00 0.00 0.00 84 1004.9
20260507070842 13 328 1.6 11.3 0.00 0.00 0.00 85 1004.9
20260507070356 13 329 3.2 11.3 0.00 0.00 0.00 85 1005.0
20260507065906 13 323 3.2 8.0 0.00 0.00 0.00 85 1005.2
20260507065353 13 321 1.6 6.4 0.00 0.00 0.00 85 1005.0
20260507064900 13 321 1.6 8.0 0.00 0.00 0.00 85 1005.0
20260507064345 13 320 1.6 8.0 0.00 0.00 0.00 85 1005.2
20260507063854 13 320 1.6 11.3 0.00 0.00 0.00 85 1005.2
20260507063359 13 325 4.8 12.9 0.00 0.00 0.00 85 1005.3
20260507062846 13 326 4.8 14.5 0.00 0.00 0.00 86 1005.3
20260507062413 13 331 4.8 14.5 0.00 0.00 0.00 86 1005.3
20260507061856 13 325 4.8 14.5 0.00 0.00 0.00 86 1005.1
20260507061342 13 329 3.2 9.7 0.00 0.00 0.00 86 1004.9
20260507060850 13 333 1.6 8.0 0.00 0.00 0.00 87 1004.8
20260507060351 13 329 1.6 8.0 0.00 0.00 0.00 87 1004.9
20260507055922 13 331 1.6 9.7 0.00 0.00 0.00 87 1005.2
20260507055350 13 332 3.2 9.7 0.00 0.00 0.00 87 1005.3
20260507054855 14 293 1.6 11.3 0.00 0.00 0.00 87 1005.2
20260507054341 14 288 4.8 16.1 0.00 0.00 0.00 87 1005.2
20260507053848 14 311 4.8 16.1 0.00 0.00 0.00 88 1005.5
20260507053349 14 302 0.0 8.0 0.00 0.00 0.00 89 1005.6
20260507052856 14 300 1.6 9.7 0.00 0.00 0.00 89 1005.4
20260507052344 14 300 3.2 9.7 0.00 0.00 0.00 89 1005.4
20260507051847 14 301 1.6 9.7 0.00 0.00 0.00 89 1005.3
20260507051351 14 295 4.8 9.7 0.00 0.00 0.00 89 1005.1
20260507050859 15 290 3.2 11.3 0.00 0.00 0.00 90 1004.9
20260507050342 15 283 1.6 14.5 0.00 0.00 0.00 90 1005.0
20260507045855 15 282 4.8 16.1 0.00 0.00 0.00 90 1005.1
20260507045342 15 312 3.2 16.1 0.00 0.00 0.00 91 1005.1
20260507044847 15 312 3.2 9.7 0.00 0.00 0.00 91 1005.2
20260507044353 15 317 1.6 16.1 0.00 0.00 0.00 92 1005.2
20260507043859 15 338 3.2 19.3 0.00 0.00 0.00 92 1005.3
20260507043404 15 303 8.0 19.3 0.00 0.00 0.00 92 1005.0
20260507042910 15 329 3.2 17.7 0.00 0.00 0.00 93 1004.9
20260507042414 15 305 4.8 9.7 0.00 0.00 0.00 93 1005.0
20260507041856 15 307 1.6 8.0 0.00 0.00 0.00 93 1005.0
20260507041421 15 312 0.0 8.0 0.00 0.00 0.00 93 1005.0
20260507040847 15 313 4.8 11.3 0.00 0.00 0.00 93 1005.0
20260507040422 15 305 1.6 8.0 0.00 0.00 0.00 94 1005.2
20260507035846 15 305 0.0 8.0 0.00 0.00 0.00 94 1005.3
20260507035354 15 304 1.6 8.0 0.00 0.00 0.00 94 1005.4
20260507034858 15 311 3.2 9.7 0.00 0.00 0.00 93 1005.4
20260507034401 15 310 3.2 9.7 0.00 0.00 0.00 93 1005.2
20260507033849 15 321 4.8 9.7 0.00 0.00 0.00 93 1005.1
20260507033353 15 285 1.6 9.7 0.00 0.00 0.00 93 1004.9
20260507032920 15 277 1.6 12.9 0.00 0.00 0.00 93 1004.8
20260507032347 15 272 3.2 14.5 0.00 0.00 0.00 93 1005.0
20260507031912 15 277 4.8 14.5 0.00 0.00 0.00 93 1004.8
20260507031358 15 279 4.8 12.9 0.00 0.00 0.00 94 1004.7
20260507030904 15 262 4.8 12.9 0.00 0.00 0.00 93 1004.6
20260507030345 15 238 1.6 11.3 0.00 0.00 0.00 93 1004.6
20260507025856 15 275 3.2 11.3 0.00 0.00 0.00 93 1004.6
20260507025400 15 228 4.8 11.3 0.00 0.00 0.00 93 1004.6
20260507024901 15 305 3.2 11.3 0.00 0.00 0.00 93 1004.5
20260507024348 15 261 3.2 11.3 0.00 0.00 0.00 93 1004.5
20260507023855 15 245 4.8 11.3 0.00 0.00 0.00 93 1004.6
20260507023400 15 309 3.2 9.7 0.00 0.00 0.00 94 1004.8
20260507022848 15 331 1.6 9.7 0.00 0.00 0.00 94 1004.8
20260507022349 15 244 3.2 11.3 0.00 0.00 0.00 94 1004.6
20260507021849 15 250 4.8 11.3 0.00 0.00 0.00 94 1004.5
20260507021354 15 257 3.2 9.7 0.00 0.00 0.00 94 1004.6
20260507020921 15 272 1.6 11.3 0.00 0.00 0.00 94 1004.7
20260507020355 15 236 4.8 11.3 0.00 0.00 0.00 94 1004.6
20260507015844 15 285 1.6 11.3 0.00 0.00 0.00 94 1004.7
20260507015410 15 254 3.2 6.4 0.00 0.00 0.00 94 1004.5
20260507014853 15 259 3.2 8.0 0.00 0.00 0.00 94 1004.6
20260507014357 15 275 3.2 8.0 0.00 0.00 0.00 94 1004.6
20260507013901 15 286 1.6 11.3 0.00 0.00 0.00 94 1004.6
20260507013403 15 214 4.8 11.3 0.00 0.00 0.00 93 1004.7
20260507012849 15 247 1.6 9.7 0.00 0.00 0.00 93 1004.7
20260507012354 15 202 6.4 11.3 0.00 0.00 0.00 93 1004.7
20260507011921 15 233 3.2 12.9 0.00 0.00 0.00 93 1004.9
20260507011345 15 227 1.6 12.9 0.00 0.00 0.00 93 1005.1
20260507010852 15 248 1.6 9.7 0.00 0.00 0.00 93 1005.0
20260507010351 15 297 3.2 11.3 0.00 0.00 0.00 93 1005.1
20260507005841 15 238 4.8 11.3 0.00 0.00 0.00 93 1005.1
20260507005347 15 224 3.2 11.3 0.00 0.00 0.00 93 1005.2
20260507004912 15 221 3.2 11.3 0.00 0.00 0.00 93 1005.2
20260507004354 15 232 4.8 11.3 0.00 0.00 0.00 93 1005.1
20260507003857 15 227 3.2 11.3 0.00 0.00 0.00 93 1005.1
20260507003358 15 227 3.2 12.9 0.00 0.00 0.00 93 1005.0
20260507002902 15 224 1.6 12.9 0.00 0.00 0.00 93 1005.0
20260507002347 15 227 4.8 12.9 0.00 0.00 0.00 93 1005.1
20260507001850 15 229 3.2 12.9 0.00 0.00 0.00 93 1005.0
20260507001355 15 209 1.6 11.3 0.00 0.00 0.00 93 1004.9
20260507000900 15 241 3.2 11.3 0.00 0.00 0.00 93 1004.8
20260507000343 15 231 4.8 11.3 0.00 0.00 0.00 93 1004.7
20260506235855 15 235 4.8 11.3 0.00 0.00 0.00 93 1004.6
20260506235401 15 250 4.8 11.3 0.00 0.00 0.00 92 1004.7
20260506234842 15 229 6.4 11.3 0.00 0.00 0.00 92 1004.7
20260506234410 15 220 6.4 11.3 0.00 0.00 0.00 92 1004.7
20260506233852 15 233 4.8 12.9 0.00 0.00 0.00 92 1004.8
20260506233353 15 304 3.2 12.9 0.00 0.00 0.00 92 1004.6
20260506232856 15 217 3.2 12.9 0.00 0.00 0.00 92 1004.6
20260506232343 15 245 3.2 12.9 0.00 0.00 0.00 92 1004.5
20260506231849 15 264 3.2 14.5 0.00 0.00 0.00 92 1004.5
20260506231356 15 234 6.4 14.5 0.00 0.00 0.00 92 1004.6
20260506230843 15 234 6.4 14.5 0.00 0.00 0.00 92 1004.6
20260506230344 15 237 3.2 11.3 0.00 0.00 0.00 92 1004.6
20260506225854 15 326 3.2 11.3 0.00 0.00 0.00 92 1004.6
20260506225342 15 257 3.2 11.3 0.00 0.00 0.00 92 1004.7
20260506224846 16 235 4.8 12.9 0.00 0.00 0.00 92 1004.6
20260506224351 16 186 3.2 12.9 0.00 0.00 0.00 92 1004.7
20260506223856 16 240 3.2 11.3 0.00 0.00 0.00 92 1004.6
20260506223421 16 246 4.8 19.3 0.00 0.00 0.00 92 1004.8
20260506222905 16 235 4.8 19.3 0.00 0.00 0.00 91 1004.8
20260506222351 16 221 6.4 12.9 0.00 0.00 0.00 92 1004.9
20260506221854 16 232 4.8 14.5 0.00 0.00 0.00 91 1005.0
20260506221400 16 238 6.4 17.7 0.00 0.00 0.00 91 1005.0
20260506220846 16 218 9.7 16.1 0.00 0.00 0.00 91 1005.1
20260506220404 16 236 3.2 16.1 0.00 0.00 0.00 91 1005.1
20260506215853 16 229 9.7 16.1 0.00 0.00 0.00 90 1005.1
20260506215400 16 234 3.2 17.7 0.00 0.00 0.00 90 1005.1
20260506214904 16 214 4.8 16.1 0.00 0.00 0.00 90 1005.3
20260506214349 16 230 8.0 16.1 0.00 0.00 0.00 89 1005.3
20260506213854 16 321 9.7 16.1 0.00 0.00 0.00 89 1005.4
20260506213355 16 223 4.8 14.5 0.00 0.00 0.00 89 1005.4
20260506212858 16 260 6.4 16.1 0.00 0.00 0.00 89 1005.6
20260506212345 16 230 9.7 22.5 0.00 0.00 0.00 89 1005.4
20260506211909 16 229 11.3 22.5 0.00 0.00 0.00 89 1005.4
20260506211352 16 251 8.0 16.1 0.00 0.00 0.00 89 1005.4
20260506210856 16 232 8.0 16.1 0.00 0.00 0.00 89 1005.4
20260506210349 16 273 4.8 16.1 0.00 0.00 0.00 89 1005.4
20260506205841 16 232 8.0 19.3 0.00 0.00 0.00 88 1005.5
20260506205342 16 220 6.4 19.3 0.00 0.00 0.00 88 1005.5
20260506204845 16 240 8.0 16.1 0.00 0.00 0.00 88 1005.6
20260506204352 16 252 3.2 19.3 0.00 0.00 0.00 88 1005.6
20260506203858 16 227 4.8 19.3 0.00 0.00 0.00 87 1005.7
20260506203344 16 309 4.8 16.1 0.00 0.00 0.00 87 1005.8
20260506202851 17 227 6.4 14.5 0.00 0.00 0.00 86 1005.7
20260506202357 17 245 4.8 14.5 0.00 0.00 0.00 86 1005.7
20260506201842 17 220 4.8 12.9 0.00 0.00 0.00 86 1005.7
20260506201348 17 229 4.8 11.3 0.00 0.00 0.00 85 1005.6
20260506200856 17 238 4.8 11.3 0.00 0.00 0.00 85 1005.6
20260506200357 17 248 3.2 14.5 0.00 0.00 0.00 85 1005.5
20260506195846 17 234 6.4 16.1 0.00 0.00 0.00 84 1005.5
20260506195413 17 217 4.8 14.5 0.00 0.00 0.00 83 1005.5
20260506194918 18 231 4.8 16.1 0.00 0.00 0.00 82 1005.6
20260506194342 18 236 4.8 16.1 0.00 0.00 0.00 81 1005.6
20260506193847 18 223 3.2 16.1 0.00 0.00 0.00 80 1005.8
20260506193352 18 240 3.2 16.1 0.00 0.00 0.00 79 1005.9
20260506192840 19 239 6.4 16.1 0.00 0.00 0.00 77 1005.6
20260506192347 19 186 4.8 16.1 0.00 0.00 0.00 75 1005.8
20260506191914 20 222 4.8 9.7 0.00 0.00 0.00 74 1005.7
20260506191417 20 222 3.2 11.3 0.00 0.00 0.00 72 1005.8
20260506190842 20 225 4.8 11.3 0.00 0.00 0.00 71 1005.7
20260506190339 20 225 4.8 12.9 0.00 0.00 0.00 70 1005.6
20260506185847 20 236 6.4 12.9 0.00 0.00 0.00 68 1005.7
20260506185353 20 216 4.8 16.1 0.00 0.00 0.00 68 1005.6
20260506184918 20 230 8.0 16.1 0.00 0.00 0.00 66 1005.7
20260506184401 21 218 9.7 19.3 0.00 0.00 0.00 66 1005.8
20260506183907 21 244 6.4 17.7 0.00 0.00 0.00 65 1005.8
20260506183350 21 220 6.4 17.7 0.00 0.00 0.00 64 1005.8
20260506182855 21 217 8.0 19.3 0.00 0.00 0.00 62 1005.9
20260506182358 21 229 9.7 22.5 0.00 0.00 0.00 61 1005.9
20260506181900 22 248 8.0 22.5 0.00 0.00 0.00 60 1005.9
20260506181344 22 62 6.4 22.5 0.00 0.00 0.00 59 1005.8
20260506180850 22 210 11.3 22.5 0.00 0.00 0.00 58 1005.9
20260506180350 22 235 6.4 25.7 0.00 0.00 0.00 58 1005.7
20260506175920 22 99 12.9 25.7 0.00 0.00 0.00 57 1005.8
20260506175423 22 230 11.3 24.1 0.00 0.00 0.00 58 1006.0
20260506174845 22 236 11.3 22.5 0.00 0.00 0.00 58 1006.0
20260506174349 23 227 8.0 20.9 0.00 0.00 0.00 58 1006.2
20260506173854 23 221 11.3 20.9 0.00 0.00 0.00 58 1006.1
20260506173355 22 217 8.0 22.5 0.00 0.00 0.00 59 1006.2
20260506172859 22 240 9.7 22.5 0.00 0.00 0.00 60 1006.3
20260506172401 22 248 8.0 17.7 0.00 0.00 0.00 60 1006.3
20260506171902 22 221 9.7 24.1 0.00 0.00 0.00 60 1006.4
20260506171347 22 240 11.3 24.1 0.00 0.00 0.00 60 1006.3
20260506170852 22 226 9.7 22.5 0.00 0.00 0.00 61 1006.2
20260506170348 22 243 9.7 17.7 0.00 0.00 0.00 61 1006.3
20260506165916 22 227 8.0 17.7 0.00 0.00 0.00 61 1006.4
20260506165401 22 223 4.8 24.1 0.00 0.00 0.00 62 1006.4
20260506164903 22 237 9.7 32.2 0.00 0.00 0.00 61 1006.6
20260506164346 22 219 9.7 32.2 0.00 0.00 0.00 61 1006.7
20260506163911 22 241 9.7 20.9 0.00 0.00 0.00 61 1006.6
20260506163352 22 231 9.7 20.9 0.00 0.00 0.00 61 1006.7
20260506162855 22 219 6.4 16.1 0.00 0.00 0.00 61 1006.7
20260506162419 22 229 4.8 27.4 0.00 0.00 0.00 61 1006.7
20260506161856 22 163 9.7 17.7 0.00 0.00 0.00 61 1006.9
20260506161401 22 231 9.7 17.7 0.00 0.00 0.00 62 1007.0
20260506160905 22 239 9.7 20.9 0.00 0.00 0.00 62 1007.2
20260506160358 22 234 11.3 22.5 0.00 0.00 0.00 61 1007.2
20260506155858 22 234 11.3 25.7 0.00 0.00 0.00 61 1007.3
20260506155423 22 234 9.7 22.5 0.00 0.00 0.00 61 1007.4
20260506154907 22 229 9.7 25.7 0.00 0.00 0.00 60 1007.4
20260506154350 22 234 11.3 25.7 0.00 0.00 0.00 60 1007.6
20260506153916 22 228 9.7 24.1 0.00 0.00 0.00 60 1007.7
20260506153359 22 228 6.4 20.9 0.00 0.00 0.00 60 1007.7
20260506152846 22 252 4.8 22.5 0.00 0.00 0.00 60 1007.8
20260506152351 22 240 9.7 22.5 0.00 0.00 0.00 60 1007.8
20260506151854 22 240 6.4 22.5 0.00 0.00 0.00 60 1007.8
20260506151401 22 298 6.4 29.0 0.00 0.00 0.00 61 1007.8
20260506150848 22 325 11.3 29.0 0.00 0.00 0.00 61 1007.9
20260506150348 22 240 12.9 27.4 0.00 0.00 0.00 61 1008.0
20260506145859 22 277 8.0 20.9 0.00 0.00 0.00 62 1008.0
20260506145346 22 231 6.4 17.7 0.00 0.00 0.00 63 1008.0
20260506144849 21 238 8.0 17.7 0.00 0.00 0.00 63 1007.9
20260506144356 21 236 8.0 19.3 0.00 0.00 0.00 64 1007.8
20260506143923 21 223 8.0 19.3 0.00 0.00 0.00 64 1007.9
20260506143345 21 227 9.7 17.7 0.00 0.00 0.00 64 1007.9
20260506142851 21 206 8.0 20.9 0.00 0.00 0.00 65 1007.9
20260506142355 21 269 9.7 20.9 0.00 0.00 0.00 65 1007.9
20260506141845 21 241 6.4 17.7 0.00 0.00 0.00 66 1007.8
20260506141352 21 300 4.8 17.7 0.00 0.00 0.00 67 1007.8
20260506140857 21 237 4.8 22.5 0.00 0.00 0.00 68 1007.8
20260506140343 20 232 12.9 22.5 0.00 0.00 0.00 68 1008.0
20260506135910 20 250 8.0 14.5 0.00 0.00 0.00 70 1007.9
20260506135356 20 268 6.4 16.1 0.00 0.00 0.00 71 1008.1
20260506134919 20 215 6.4 11.3 0.00 0.00 0.00 72 1008.1
20260506134402 19 224 3.2 20.9 0.00 0.00 0.00 72 1008.0
20260506133847 19 246 4.8 20.9 0.00 0.00 0.00 73 1008.3
20260506133351 19 240 4.8 17.7 0.00 0.00 0.00 73 1008.4
20260506132900 19 242 9.7 17.7 0.00 0.00 0.00 73 1008.6
20260506132405 18 238 1.6 8.0 0.00 0.00 0.00 74 1008.6
20260506131849 18 286 4.8 12.9 0.00 0.00 0.00 75 1008.7
20260506131356 18 231 4.8 14.5 0.00 0.00 0.00 75 1008.6
20260506130901 18 234 8.0 14.5 0.00 0.00 0.00 75 1008.6
20260506130401 18 232 6.4 11.3 0.00 0.00 0.00 76 1008.5
20260506125852 18 211 4.8 14.5 0.00 0.00 0.00 76 1008.5
20260506125400 18 229 6.4 17.7 0.00 0.00 0.00 77 1008.6
20260506124844 18 226 4.8 17.7 0.00 0.00 0.00 77 1008.7
20260506124352 18 227 6.4 16.1 0.00 0.00 0.00 77 1008.7
20260506123858 17 234 9.7 16.1 0.00 0.00 0.00 78 1008.7
20260506123346 17 256 6.4 16.1 0.00 0.00 0.00 78 1008.9
20260506122853 17 242 6.4 11.3 0.00 0.00 0.00 80 1008.8
20260506122358 17 234 4.8 16.1 0.00 0.00 0.00 79 1008.8
20260506121902 17 250 4.8 16.1 0.00 0.00 0.00 80 1008.7
20260506121344 17 257 6.4 11.3 0.00 0.00 0.00 80 1008.6
20260506120851 17 229 4.8 14.5 0.00 0.00 0.00 81 1008.8
20260506120351 16 241 8.0 19.3 0.00 0.00 0.00 81 1008.8
20260506115903 16 232 6.4 19.3 0.00 0.00 0.00 82 1009.0
20260506115349 16 244 6.4 14.5 0.00 0.00 0.00 82 1009.0
20260506114912 16 219 4.8 16.1 0.00 0.00 0.00 82 1009.1
20260506114355 16 232 9.7 16.1 0.00 0.00 0.00 82 1008.8
20260506113900 16 236 4.8 14.5 0.00 0.00 0.00 82 1009.2
20260506113403 16 221 8.0 14.5 0.00 0.00 0.00 82 1009.4
20260506112848 16 221 6.4 12.9 0.00 0.00 0.00 82 1009.3